Temperature
25 25 24 25 25 25 25 25 24 24 25 24 23 23 23 22 22 22 21 21 21 20 20 20 19 19 19 19 18 18 18 17 17 17 17 17 17 16 16 16 16 16 16 16
25 24 25 26 26 25 25 24 24 24 25 24 23 23 23 23 22 22 22 21 21 21 20 20 19 19 19 19 18 18 18 17 17 17 17 17 17 16 16 16 16 16 16 16
24 25 26 26 25 25 25 24 24 24 24 25 23 22 23 23 23 22 22 22 21 21 21 20 20 19 19 19 18 18 18 18 17 17 17 17 17 16 16 16 16 16 16 16
25 25 25 25 25 25 24 25 24 24 23 23 24 22 22 23 22 22 22 22 22 21 21 20 20 19 19 19 18 18 18 18 17 17 17 17 16 16 16 16 16 16 16 16
24 25 25 24 24 25 24 25 24 24 23 23 23 22 22 23 22 22 22 22 22 21 21 20 20 19 19 18 18 18 18 18 17 17 17 17 16 16 16 16 16 16 16 16
25 25 25 25 25 25 25 24 24 24 23 22 23 23 22 23 23 22 22 22 22 21 21 20 20 19 19 18 18 18 18 17 17 17 17 17 16 16 16 16 16 16 16 16
24 25 25 25 24 24 24 23 22 22 21 22 24 24 23 24 24 23 23 22 22 21 21 20 20 19 19 18 18 18 17 17 17 17 17 17 16 16 16 16 16 16 16 16
24 23 24 25 24 24 24 23 22 21 22 23 24 23 24 25 25 24 23 22 22 21 21 20 20 19 19 18 18 17 17 17 17 17 17 17 17 16 16 16 16 16 16 16
24 24 25 25 25 25 24 23 24 23 23 23 23 24 24 25 24 24 23 22 22 21 21 20 20 19 19 18 18 17 17 17 17 17 17 17 17 17 17 16 16 16 16 16
25 24 24 25 25 25 24 24 23 22 21 21 23 23 22 22 23 23 23 23 22 21 21 20 20 19 19 18 18 18 17 17 17 17 17 17 17 17 17 17 16 16 16 16
25 24 24 24 23 23 24 23 23 23 23 21 21 22 24 23 23 23 23 23 22 22 21 20 20 19 19 18 18 18 18 17 17 17 17 17 17 17 17 17 16 16 16 16
25 24 23 24 25 25 24 24 23 22 22 22 21 22 25 24 24 23 23 23 22 22 21 20 20 19 19 19 18 18 18 18 17 17 17 17 17 17 16 16 16 16 16 16
24 23 23 23 23 24 24 24 24 24 23 22 21 22 24 24 24 23 23 23 22 22 21 20 20 19 19 19 18 18 18 18 18 17 17 17 17 17 16 16 16 16 16 16
23 23 23 22 23 23 23 23 24 23 22 22 22 23 24 24 24 23 23 23 22 22 21 20 20 19 19 19 19 18 18 18 17 17 17 17 17 16 16 16 16 16 16 16
23 23 24 24 24 24 24 23 24 23 23 23 23 23 23 23 23 23 23 22 22 22 21 20 20 19 19 19 19 19 18 18 18 17 17 17 17 16 16 16 16 16 16 16
23 23 23 23 24 24 24 24 24 23 24 24 23 23 24 24 24 23 23 22 22 21 21 20 20 19 19 19 19 19 18 18 18 17 17 17 17 16 16 16 16 16 16 16
23 22 22 22 23 23 22 23 23 23 24 24 23 23 24 23 23 23 23 22 22 21 21 20 20 19 19 19 19 19 18 18 18 17 17 17 17 16 16 16 16 16 16 15
22 22 22 22 22 21 23 25 24 24 24 24 24 24 24 24 23 23 22 22 21 21 20 20 20 19 19 19 19 19 18 18 18 17 17 17 17 16 16 16 16 15 15 15
23 22 21 21 21 21 23 24 24 23 23 24 24 24 24 23 23 22 22 21 21 21 20 20 20 19 19 19 19 18 18 18 18 17 17 17 16 16 16 16 16 15 15 15
23 22 21 20 20 20 22 24 24 23 22 23 23 23 23 23 21 21 21 21 21 20 20 19 19 19 19 19 19 18 18 18 18 17 17 17 16 16 16 16 15 15 15 15
21 21 20 20 20 21 23 23 23 21 21 22 22 22 22 22 21 21 20 20 20 20 19 19 19 19 19 19 19 18 18 18 18 17 17 16 16 16 16 15 15 15 15 15
21 20 20 20 20 20 22 22 22 21 22 22 21 21 21 20 20 20 20 20 20 20 19 19 19 19 19 18 18 18 18 18 17 17 17 16 16 16 15 15 15 15 15 15
21 21 21 21 20 21 21 21 21 21 21 21 20 20 20 19 19 19 19 19 19 19 19 19 19 18 18 18 18 18 18 18 17 17 16 16 16 15 15 15 15 15 14 14
21 22 21 21 21 21 21 21 20 20 20 20 19 19 19 19 19 19 19 19 19 19 18 18 18 18 18 17 17 17 17 17 17 16 16 16 15 15 15 15 15 14 14 14
20 21 20 20 21 21 20 20 20 20 19 19 19 19 19 18 18 18 18 18 18 18 18 18 18 17 17 17 17 17 17 17 16 16 16 15 15 15 14 14 14 14 14 14
20 20 19 19 20 20 20 19 19 19 19 18 18 18 18 18 18 18 18 18 18 17 17 17 17 17 17 16 16 16 16 16 16 16 15 15 15 14 14 14 14 13 13 13
Wind_Speed
4 4 3 3 4 6 4 3 2 0 2 2 3 4 6 7 7 7 7 7 7 7 7 7 6 5 5 6 6 6 5 4 4 2 2 2 2 3 3 4 6 6 6 6
3 4 3 2 3 4 4 3 2 1 1 2 3 5 6 8 8 8 8 8 8 8 8 8 7 6 5 6 5 6 5 5 4 3 2 2 3 3 4 4 5 6 6 6
3 0 1 1 3 4 4 2 3 3 4 4 4 5 6 8 7 6 6 6 6 8 9 9 8 7 6 6 5 5 6 6 6 4 3 3 3 2 3 3 2 4 6 6
3 1 1 2 3 5 4 3 3 4 5 3 4 3 3 8 8 8 7 6 6 7 8 8 8 7 6 6 5 5 5 6 6 5 4 3 3 2 3 3 3 3 5 5
2 1 2 3 3 4 3 4 5 6 6 6 6 4 2 7 7 8 8 8 7 7 7 8 8 7 7 6 4 4 5 5 5 5 4 3 3 2 2 3 4 4 3 4
3 2 2 2 2 3 4 5 7 7 5 5 6 4 1 3 6 7 8 8 8 8 7 7 8 7 7 7 5 5 5 5 4 5 5 4 3 3 4 3 3 3 3 2
4 4 3 2 3 3 5 5 3 3 4 3 1 2 2 4 5 6 7 8 8 8 8 8 8 8 8 8 7 5 6 5 5 5 5 6 4 4 3 3 3 2 3 2
4 4 5 4 4 3 5 5 4 3 2 1 2 1 4 7 6 6 7 7 7 8 8 8 9 9 9 9 7 6 6 6 5 5 4 5 5 3 2 3 4 3 3 3
3 2 4 3 4 5 5 5 5 6 7 4 1 3 5 7 6 6 7 7 7 8 8 8 9 10 9 9 7 7 7 7 6 5 4 4 5 4 3 3 3 3 3 3
5 2 4 3 4 6 6 5 3 3 3 3 1 2 3 4 4 4 6 7 8 8 8 9 9 9 9 9 7 7 6 7 6 5 4 4 4 4 3 3 4 3 4 3
7 4 4 5 5 5 5 5 4 4 3 2 1 2 4 4 4 3 5 6 7 8 8 8 8 9 9 9 8 7 7 6 5 5 5 4 4 4 3 2 3 3 3 3
5 5 5 6 4 4 5 5 5 4 4 3 2 1 4 6 4 2 4 7 7 8 8 8 8 8 8 8 8 6 6 6 5 4 4 5 4 4 4 3 3 3 3 3
3 5 4 3 3 5 4 5 6 6 4 3 2 1 3 5 5 4 4 6 6 7 7 8 7 7 7 7 6 6 6 6 6 5 4 5 5 4 4 3 3 3 3 3
4 7 7 5 2 2 5 6 6 6 5 4 4 3 2 3 3 4 5 5 6 7 7 7 7 6 6 7 7 7 6 6 6 6 5 4 5 5 5 4 3 2 2 2
5 8 8 7 6 5 5 6 7 8 7 6 4 2 1 2 3 4 5 5 6 6 7 7 7 6 6 6 6 7 7 7 7 6 5 4 5 5 4 4 3 2 2 2
7 7 8 9 8 7 8 7 8 8 7 7 5 3 2 1 2 3 4 5 5 6 6 7 7 7 6 6 6 6 8 8 7 7 6 5 4 4 4 5 4 3 3 2
7 8 8 8 7 8 9 8 7 7 7 5 5 3 1 1 0 2 3 4 5 6 5 6 6 6 6 6 6 6 6 6 7 7 6 6 5 5 4 4 4 4 3 2
9 8 6 7 7 8 4 2 4 6 5 5 4 2 2 1 0 2 3 4 4 5 6 6 5 5 5 5 5 5 6 6 6 6 7 6 6 6 5 4 4 4 4 3
9 8 6 6 7 7 4 2 2 4 5 4 4 3 2 1 1 2 3 3 4 4 5 4 4 5 5 4 4 5 5 5 5 5 7 7 6 6 6 5 5 4 3 3
10 9 7 7 7 6 2 1 1 3 5 3 3 1 1 2 2 1 3 3 4 4 4 4 3 4 4 4 4 5 5 5 5 5 5 6 6 6 6 5 4 4 4 4
11 10 10 9 8 5 1 2 2 3 1 3 2 2 1 0 1 1 2 2 4 5 5 4 4 3 3 4 5 5 5 6 6 5 5 5 6 6 5 4 4 4 4 4
9 7 9 8 8 5 1 2 1 1 2 3 4 3 2 3 3 2 2 2 4 5 5 4 4 3 3 4 4 4 3 5 6 6 6 5 5 5 4 4 3 4 4 4
7 6 4 4 3 1 1 1 2 3 3 4 4 4 3 2 2 1 1 2 3 4 5 4 4 4 3 3 4 4 4 5 6 7 6 6 5 5 5 5 4 3 3 3
6 6 6 5 3 2 1 1 2 2 2 4 3 2 2 1 2 1 1 2 3 3 4 4 4 4 3 3 4 4 4 5 6 7 7 6 6 5 5 4 4 3 3 3
3 4 7 7 4 3 3 1 0 1 1 2 2 2 2 1 1 2 1 1 3 3 3 4 4 4 4 4 4 4 4 5 6 6 6 6 6 6 5 5 3 4 3 3
7 6 7 5 4 3 2 1 1 0 0 0 1 2 3 2 1 1 0 1 3 3 3 4 4 4 4 4 4 4 3 4 5 6 6 5 5 5 6 5 5 6 5 6
Wind_Direction
222 239 244 246 254 291 304 323 320 122 153 211 243 224 186 172 177 180 181 183 174 166 162 150 151 149 144 133 127 128 132 130 115 99 87 88 83 69 74 73 68 57 47 45
229 250 272 329 317 292 291 297 298 284 198 239 233 241 192 182 189 188 188 184 178 170 165 153 156 154 149 139 143 146 143 136 126 117 114 116 106 94 88 70 62 59 58 43
249 0 63 268 281 282 283 295 308 307 292 245 228 244 196 181 181 183 184 187 186 170 167 163 166 160 156 151 156 154 150 142 134 125 97 88 82 77 93 99 84 58 62 51
261 312 350 283 284 291 301 346 299 282 283 279 241 259 190 171 169 180 182 192 198 176 171 166 164 159 157 153 160 161 146 136 128 123 117 124 120 120 122 126 121 102 75 65
239 201 242 260 286 304 316 331 291 276 277 282 261 252 183 160 174 183 182 190 189 173 172 164 158 155 155 147 147 134 122 120 121 122 122 120 112 123 114 109 114 116 93 81
239 230 267 285 300 303 299 286 269 256 262 265 246 219 156 163 172 177 178 183 178 167 164 156 151 145 144 140 140 135 130 126 133 138 143 136 119 108 102 106 114 119 114 95
216 207 205 242 264 245 258 279 278 235 220 239 191 179 137 128 145 166 173 172 173 165 163 159 155 149 148 147 149 152 143 142 158 168 161 149 147 148 151 146 141 137 125 120
219 209 184 206 244 251 244 253 273 300 303 264 201 165 116 111 115 138 151 159 166 159 162 163 157 152 152 154 159 163 157 162 173 181 172 155 151 156 157 151 146 145 135 143
254 199 162 193 246 268 264 251 266 289 299 294 192 127 122 114 113 131 143 152 159 155 157 158 154 154 154 159 166 172 167 165 175 187 164 154 152 160 153 161 144 134 136 137
288 253 187 185 237 243 268 293 282 268 299 293 251 148 142 127 114 132 147 156 157 158 158 156 154 155 158 162 167 173 171 168 174 181 164 159 156 156 152 146 134 140 138 122
280 261 201 197 221 240 230 249 264 274 267 296 318 52 100 121 119 136 144 148 156 155 153 153 156 160 158 158 169 176 170 166 171 177 167 157 156 153 151 145 133 128 122 137
275 277 242 214 209 242 255 247 249 267 282 280 283 87 97 112 113 118 132 139 150 148 146 150 155 156 158 165 173 171 163 164 165 167 157 157 155 154 154 148 148 161 151 159
297 275 262 210 198 211 241 260 263 267 271 273 273 169 120 121 123 121 127 137 146 145 148 153 154 159 161 164 168 166 161 159 152 153 159 159 156 161 160 160 169 169 155 160
276 263 265 263 284 226 239 251 264 263 263 264 251 224 154 106 113 120 128 138 141 150 154 151 153 160 161 168 175 171 161 158 155 160 169 166 159 159 161 161 155 153 142 151
256 266 274 282 281 270 254 248 251 258 264 267 268 267 222 134 139 141 147 146 152 158 158 154 159 161 165 174 178 169 164 163 164 161 165 172 162 153 154 145 142 132 107 94
247 267 275 272 265 265 264 253 251 257 263 263 266 273 298 169 144 149 148 151 157 159 163 161 164 163 174 178 178 171 169 171 166 164 166 166 157 151 151 148 153 147 133 117
238 259 271 267 261 261 256 244 245 249 250 255 259 265 291 235 158 125 151 158 165 162 158 163 168 168 182 186 183 174 172 167 167 167 166 159 155 151 150 152 152 152 149 140
240 253 263 269 265 251 245 209 237 253 249 257 261 274 270 238 184 164 154 161 166 160 164 168 175 170 179 183 173 167 167 171 170 167 163 159 160 160 157 156 159 163 162 162
235 239 254 261 261 256 242 218 243 258 256 276 266 244 234 218 216 157 118 133 151 156 153 163 170 161 171 172 158 156 160 163 160 164 164 160 159 160 163 168 170 171 162 161
229 238 243 252 255 251 250 109 84 283 257 296 308 276 199 205 221 163 113 121 142 142 143 151 152 151 160 156 149 154 160 157 157 157 160 157 157 160 165 170 172 164 159 167
213 225 234 246 251 254 252 123 168 237 309 7 4 11 31 79 4 80 107 116 139 137 136 136 143 145 148 148 149 158 161 167 161 151 147 144 149 154 157 165 161 154 152 152
215 218 228 236 241 241 104 155 192 7 30 16 20 21 29 43 51 54 103 118 130 130 130 135 136 130 129 138 144 151 156 150 141 138 138 138 141 148 148 142 143 143 144 148
221 223 235 236 229 108 92 60 27 4 6 8 16 26 39 47 41 51 117 149 146 137 139 136 131 129 129 132 132 139 130 127 132 133 135 134 135 131 129 133 136 135 138 148
226 233 238 240 227 196 211 83 51 355 355 1 4 8 35 43 10 345 305 163 135 130 134 135 133 134 132 128 121 122 125 127 133 139 144 142 136 124 116 116 124 129 142 153
232 234 243 244 241 232 223 204 105 355 354 360 349 348 354 1 329 313 290 153 136 136 137 137 141 140 137 128 121 121 127 138 144 148 145 142 136 132 121 112 109 125 119 144
232 232 235 243 248 260 234 204 180 212 301 70 345 343 339 320 285 290 324 119 135 137 136 139 143 142 139 131 128 126 129 139 146 148 143 137 136 134 134 129 106 77 93 104
Height
1513 1515 1517 1514 1512 1512 1513 1516 1520 1517 1514 1518 1521 1522 1522 1524 1526 1529 1531 1532 1534 1536 1539 1541 1543 1545 1546 1548 1549 1551 1552 1553 1554 1554 1555 1556 1557 1557 1558 1558 1558 1559 1559 1559
1514 1517 1512 1511 1511 1512 1513 1518 1520 1517 1513 1516 1520 1521 1519 1521 1523 1526 1528 1530 1533 1535 1538 1540 1542 1544 1546 1548 1549 1551 1552 1553 1554 1555 1556 1557 1557 1558 1558 1559 1559 1559 1559 1560
1516 1514 1510 1511 1514 1515 1515 1518 1519 1520 1516 1513 1519 1523 1518 1518 1521 1524 1526 1529 1531 1533 1536 1538 1541 1543 1545 1547 1549 1550 1552 1553 1554 1555 1556 1557 1558 1559 1559 1559 1559 1560 1560 1560
1512 1511 1512 1514 1515 1515 1519 1514 1516 1518 1522 1523 1519 1532 1520 1516 1519 1522 1525 1527 1529 1532 1534 1537 1539 1542 1544 1546 1548 1550 1552 1553 1554 1555 1556 1557 1558 1559 1560 1560 1560 1560 1561 1561
1513 1512 1514 1516 1515 1514 1516 1514 1515 1517 1520 1524 1519 1526 1522 1514 1519 1520 1522 1525 1527 1530 1533 1535 1538 1540 1543 1545 1548 1550 1551 1553 1554 1555 1556 1557 1558 1559 1560 1561 1561 1561 1561 1562
1512 1511 1512 1513 1513 1514 1514 1515 1515 1515 1521 1532 1518 1523 1526 1516 1516 1517 1519 1523 1525 1528 1531 1534 1537 1539 1542 1544 1547 1549 1550 1552 1553 1555 1556 1557 1558 1559 1560 1561 1561 1562 1562 1563
1514 1512 1512 1514 1516 1516 1517 1525 1533 1534 1536 1530 1510 1517 1520 1510 1509 1513 1516 1520 1523 1527 1530 1533 1536 1538 1541 1543 1545 1548 1550 1551 1553 1554 1556 1557 1558 1559 1560 1561 1562 1562 1563 1563
1518 1520 1512 1512 1515 1518 1517 1521 1535 1542 1536 1526 1513 1518 1513 1506 1508 1511 1515 1519 1522 1525 1528 1531 1534 1537 1539 1542 1544 1547 1548 1550 1552 1554 1555 1556 1558 1559 1560 1561 1562 1563 1563 1564
1513 1517 1508 1510 1511 1513 1517 1518 1515 1524 1523 1527 1518 1513 1509 1506 1509 1512 1515 1518 1521 1524 1527 1530 1533 1536 1538 1541 1543 1545 1547 1549 1551 1553 1555 1556 1557 1559 1560 1561 1562 1563 1564 1564
1506 1515 1511 1510 1512 1512 1513 1513 1518 1526 1535 1538 1526 1520 1521 1514 1513 1512 1514 1517 1520 1523 1526 1529 1531 1534 1537 1540 1542 1545 1547 1548 1550 1552 1554 1555 1557 1558 1559 1561 1562 1563 1564 1564
1505 1512 1513 1511 1514 1515 1515 1516 1517 1519 1522 1535 1538 1530 1509 1510 1511 1512 1514 1516 1519 1522 1525 1528 1531 1534 1537 1539 1541 1544 1546 1548 1550 1551 1553 1555 1556 1557 1559 1560 1561 1562 1563 1564
1506 1509 1513 1511 1506 1507 1509 1512 1515 1528 1526 1522 1530 1529 1506 1507 1510 1512 1513 1516 1519 1522 1525 1528 1531 1533 1536 1538 1540 1542 1545 1547 1548 1550 1552 1554 1555 1556 1558 1559 1561 1562 1563 1564
1509 1513 1519 1520 1517 1511 1510 1509 1510 1513 1518 1523 1531 1528 1507 1507 1509 1512 1514 1516 1519 1521 1524 1527 1530 1532 1535 1537 1539 1541 1543 1545 1547 1549 1551 1553 1554 1555 1557 1558 1560 1561 1562 1563
1511 1511 1516 1523 1517 1511 1513 1511 1509 1513 1521 1522 1521 1518 1510 1508 1510 1512 1514 1516 1519 1521 1524 1526 1529 1531 1534 1536 1538 1540 1542 1544 1546 1548 1549 1551 1553 1554 1555 1557 1559 1560 1561 1562
1510 1511 1507 1505 1503 1504 1507 1509 1509 1511 1511 1516 1514 1512 1510 1508 1510 1512 1513 1516 1518 1521 1523 1525 1528 1530 1532 1535 1537 1539 1540 1542 1544 1546 1548 1549 1551 1553 1554 1556 1557 1558 1559 1561
1509 1510 1509 1508 1503 1503 1506 1505 1506 1507 1507 1508 1509 1510 1506 1507 1508 1510 1512 1514 1517 1519 1522 1524 1526 1529 1531 1533 1534 1536 1538 1540 1542 1544 1546 1548 1549 1551 1552 1554 1555 1556 1557 1559
1508 1510 1514 1513 1504 1505 1511 1504 1504 1505 1503 1506 1510 1508 1505 1507 1508 1509 1511 1513 1515 1518 1520 1522 1524 1527 1529 1531 1532 1534 1536 1539 1541 1542 1544 1546 1547 1549 1550 1552 1553 1554 1556 1557
1507 1509 1512 1513 1512 1522 1506 1495 1498 1500 1501 1501 1502 1503 1504 1506 1507 1508 1510 1512 1514 1516 1518 1520 1523 1525 1527 1529 1531 1532 1534 1537 1538 1540 1541 1543 1545 1546 1548 1550 1551 1552 1554 1555
1503 1507 1513 1515 1517 1511 1502 1496 1497 1501 1502 1499 1500 1501 1503 1505 1506 1507 1509 1510 1512 1515 1516 1519 1521 1523 1525 1527 1528 1530 1532 1534 1536 1537 1539 1540 1542 1544 1546 1547 1549 1550 1551 1553
1501 1503 1511 1514 1519 1519 1505 1496 1496 1501 1505 1499 1499 1500 1502 1503 1507 1508 1508 1509 1511 1513 1515 1517 1519 1521 1523 1524 1526 1528 1530 1532 1533 1535 1537 1538 1540 1541 1543 1545 1547 1548 1549 1550
1504 1506 1510 1512 1514 1507 1498 1496 1498 1510 1509 1500 1500 1501 1502 1504 1507 1508 1507 1508 1510 1512 1514 1516 1518 1519 1521 1522 1524 1526 1528 1529 1531 1533 1534 1536 1538 1540 1541 1543 1545 1546 1547 1548
1500 1505 1507 1508 1513 1511 1498 1497 1501 1504 1501 1501 1501 1502 1503 1503 1505 1506 1507 1508 1509 1510 1512 1514 1516 1517 1519 1520 1522 1524 1526 1527 1529 1531 1532 1534 1536 1538 1539 1541 1542 1544 1545 1546
1493 1496 1498 1500 1503 1498 1498 1498 1500 1501 1501 1502 1502 1502 1503 1503 1504 1505 1506 1507 1508 1509 1511 1513 1514 1516 1517 1519 1520 1522 1524 1525 1527 1529 1530 1532 1534 1535 1537 1538 1540 1541 1542 1543
1489 1491 1493 1495 1495 1496 1498 1498 1500 1501 1501 1502 1502 1503 1503 1503 1503 1504 1505 1506 1506 1508 1510 1511 1513 1514 1516 1517 1519 1520 1522 1523 1525 1526 1528 1530 1532 1533 1535 1536 1537 1539 1540 1541
1489 1490 1491 1493 1494 1495 1496 1497 1499 1500 1500 1501 1502 1502 1502 1502 1502 1503 1503 1504 1505 1507 1508 1510 1511 1512 1514 1516 1517 1518 1520 1521 1523 1524 1526 1528 1529 1531 1532 1534 1535 1536 1538 1539
1487 1489 1492 1493 1493 1494 1495 1496 1497 1498 1499 1500 1501 1501 1501 1501 1501 1501 1502 1503 1504 1505 1507 1508 1510 1511 1513 1514 1515 1516 1518 1519 1521 1523 1524 1526 1528 1529 1531 1532 1533 1535 1536 1537